Regional Weather Roundup
Issued by NWS

Home | Current Version | Previous Version | Graphics & Text | Print | Product List | Glossary On
Versions: 1 2 3 4 5 6 7 8 9 10 11 12 13 14 15 16 17 18 19 20 21 22 23 24 25 26 27 28 29 30 31 32 33 34 35 36 37 38 39 40 41 42 43 44 45 46 47 48 49 50
000
ASUS43 KLOT 021758
RWRIL

ILLINOIS REGIONAL WEATHER ROUNDUP
NATIONAL WEATHER SERVICE CHICAGO/ROMEOVILLE IL
1200 PM CST MON MAR 02 2015

NOTE: "FAIR" INDICATES FEW OR NO CLOUDS BELOW 12,000 FEET WITH NO
SIGNIFICANT WEATHER AND/OR OBSTRUCTIONS TO VISIBILITY.

* THESE STATIONS ARE NOT UNDER NWS QUALITY CONTROL. THEY ALSO MAY NOT
  REPORT WEATHER SUCH AS PRECIPITATION OR FOG.

ILZ001-002-007-009-015-016-024-021900-
NORTHWEST ILLINOIS

CITY           SKY/WX    TMP DP  RH WIND       PRES   REMARKS
MOLINE         SUNNY     30  13  49 CALM      30.51F
6HR MIN TEMP:   2; 6HR MAX TEMP:  30;

$$

ILZ003-004-008-010-011-017-018-021900-
NORTH CENTRAL ILLINOIS

CITY           SKY/WX    TMP DP  RH WIND       PRES   REMARKS
ROCKFORD       NOT AVBL
$$

ILZ005-006-012>014-019>023-021900-
NORTHEAST ILLINOIS

CITY           SKY/WX    TMP DP  RH WIND       PRES   REMARKS
CHICAGO-OHARE  PTSUNNY   27  11  51 CALM      30.51F
6HR MIN TEMP:  13; 6HR MAX TEMP:  29;

CHICAGO-MIDWAY NOT AVBL
AURORA         SUNNY     24  13  62 NW5       30.52F WCI  18
6HR MIN TEMP:   1; 6HR MAX TEMP:  24;

WAUKEGAN       NOT AVBL
DUPAGE AIRPORT SUNNY     28  11  48 N5        30.50F WCI  23
6HR MIN TEMP:  10; 6HR MAX TEMP:  28; 6HR PCP: TRACE;

WHEELING       SUNNY     27  10  49 CALM      30.53S
6HR MIN TEMP:  13; 6HR MAX TEMP:  28;

NORTHERLY ISL    N/A     26  15  63 E5          N/A  WCI  21
$$

LMZ740>746-021900-
SOUTHERN LAKE MICHIGAN

STATION/POSITION SKY/WX   TEMP    WIND        PRES    VSBY  WAVE
                          AIR SEA DIR/SP/G                  HT/PER
                          (F)     (DEG/KT/KT) (MB)    (MI)  (FT/S)
WAUKEGAN HARBOR            24     350/ 10/ 13   N/A
HARRISON CRIB              23     360/  5/  7   N/A
BURNHAM HARBOR             27      70/  4/  6   N/A
CALUMET HARBOR             26      40/  5/  7 1032.4R
MICHIGAN CITY              29     290/  5/  6   N/A
$$

ILZ025>027-034>036-040-047-049-050-058-095>099-021900-
WEST-CENTRAL ILLINOIS

CITY           SKY/WX    TMP DP  RH WIND       PRES   REMARKS
$$

ILZ028>032-037-038-041>044-048-051>054-059>061-021900-
CENTRAL ILLINOIS

CITY           SKY/WX    TMP DP  RH WIND       PRES   REMARKS
PEORIA         NOT AVBL
SPRINGFIELD    PTSUNNY   32  21  64 CALM      30.52F
6HR MIN TEMP:  10; 6HR MAX TEMP:  35;

TAYLORVILLE    NOT AVBL
$$

ILZ033-039-045-046-055>057-062-063-021900-
EAST-CENTRAL ILLINOIS

CITY           SKY/WX    TMP DP  RH WIND       PRES   REMARKS
MATTOON        MOSUNNY   26  17  68 N8        30.51F WCI  18
$$

ILZ079-100>102-021900-
SOUTHWEST ILLINOIS

CITY           SKY/WX    TMP DP  RH WIND       PRES   REMARKS
ALTON          MOSUNNY   34  16  47 E7        30.53  WCI  28
CAHOKIA*       LGT RAIN  34  17  50 E12       30.53F WCI  25
$$

ILZ064>066-069>071-074>076-080>082-084>086-088>090-092>094-021900-
SOUTH-CENTRAL ILLINOIS

CITY           SKY/WX    TMP DP  RH WIND       PRES   REMARKS
CARBONDALE     SUNNY     36  20  52 NE12      30.51F WCI  28
6HR MIN TEMP:  21; 6HR MAX TEMP:  36;

$$

ILZ067-068-072-073-078-083-087-091-021900-
SOUTHEAST ILLINOIS

CITY           SKY/WX    TMP DP  RH WIND       PRES   REMARKS
$$

ABBREVIATIONS USED IN REMARKS
   TC - TEMPERATURE IN CELSIUS
  WCI - WIND CHILL INDEX
   HX - HEAT INDEX
  VSB - VISIBILITY
$$



USA.gov is the U.S. government's official web portal to all federal, state and local government web resources and services.